Simultaneous Nadir Overpasses (SNOs) Predictions

Prediction of SNOs between AURA and NPP Satellite Orbit:

Table of predicted SNOs for the next 14.0 days since TLE Epoch: 9/2/2016
Index Date (AURA) Time (AURA) Lat,Lon (AURA) SZA (AURA ) Date (NPP) Time (NPP) Lat,Lon (NPP) SZA (NPP ) Distance(km) Time Diff (sec)
1 09/02/2016 18:18:50 -78.95, -21.51 94.26 09/02/2016 18:17:38 -78.94, -21.59 94.18 1.94 72
2 09/02/2016 19:08:06 79.34, 148.56 85.22 09/02/2016 19:08:11 79.35, 148.64 85.20 1.64 5
3 09/05/2016 10:35:15 -79.13, 95.43 93.57 09/05/2016 10:34:26 -79.14, 95.52 93.55 2.13 49
4 09/05/2016 11:24:34 79.40, -95.21 86.07 09/05/2016 11:25:03 79.39, -95.23 86.06 0.40 29
5 09/08/2016 02:51:41 -79.21,-148.16 92.74 09/08/2016 02:51:16 -79.22,-148.11 92.73 1.05 25
6 09/08/2016 03:41:01 79.44, 20.95 86.96 09/08/2016 03:41:54 79.44, 20.90 86.93 1.18 53
7 09/10/2016 19:08:08 -79.29, -31.80 91.89 09/10/2016 19:08:07 -79.29, -31.75 91.90 1.14 1
8 09/10/2016 19:55:06 81.61,-169.23 80.04 09/10/2016 19:56:19 80.92,-170.39 79.71 79.12 73
9 09/13/2016 10:35:14 79.10, -84.72 89.32 09/13/2016 10:34:20 79.11, -84.64 89.34 1.90 54
10 09/13/2016 11:24:34 -79.39, 84.76 91.08 09/13/2016 11:24:57 -79.40, 84.87 91.11 2.42 23
11 09/16/2016 02:51:42 79.12, 31.26 90.27 09/16/2016 02:51:13 79.11, 31.17 90.31 1.99 29




NCC Satellite Simultaneous Nadir Overpasses (SNOs) Prediction Service
